Date String (YYYY-MM-DD hh:mm:ss) UTC,Instrument flags,Ambient pressure (hPa),Sample flow (lpm),Bypass flow (lpm),Sample temperature (°C),Ambient temperature (°C),ASC tube jacket temperature (°C),LED temperature (°C),Box temperature (°C),Sample RH (%),Span deviation,Mass concentration (μg/m³),Mass concentration (μg/m³),Mass concentration (μg/m³)
DateTimeUTC,F1_M11,P_M11,Q1_M11,Q2_M11,T1_M11,T2_M11,T3_M11,T4_M11,T5_M11,U1_M11,ZSPAN_M11,X0_M11,X2_M11,X1_M11
2022-09-11 12:00:00,,0834.0,5.01,0.00,26.6,24.9,00.0,35.3,28.4,24.7,0000.0,0008.56,0006.21,0005.95
2022-09-11 12:01:00,,0834.0,5.00,0.00,26.6,24.9,00.0,35.3,28.4,24.7,0000.0,0008.49,0006.20,0005.95
2022-09-11 12:02:00,,0834.0,5.00,0.00,26.5,24.8,00.0,35.3,28.4,24.8,-001.0,0008.48,0006.20,0005.96
2022-09-11 12:03:00,,0834.0,5.00,0.00,26.5,24.8,00.0,35.3,28.4,24.9,-001.1,0008.54,0006.20,0005.96
2022-09-11 12:04:00,,0834.0,4.98,0.00,26.5,24.8,00.0,35.3,28.4,25.0,-000.9,0008.55,0006.20,0005.95
2022-09-11 12:05:00,,0834.0,5.01,0.00,26.5,24.8,00.0,35.3,28.4,25.1,-000.6,0008.54,0006.19,0005.96
2022-09-11 12:06:00,,0834.0,5.01,0.00,26.5,24.8,00.0,35.3,28.4,25.2,-001.3,0008.52,0006.18,0005.96
2022-09-11 12:07:00,,0834.0,4.99,0.00,26.5,24.8,00.0,35.3,28.4,25.3,-001.3,0008.47,0006.17,0005.95
2022-09-11 12:08:00,,0834.0,5.01,0.00,26.5,24.8,00.0,35.3,28.3,25.3,-000.9,0008.38,0006.14,0005.94
2022-09-11 12:09:00,,0834.0,4.98,0.00,26.5,24.8,00.0,35.3,28.3,25.6,-001.1,0008.26,0006.10,0005.93
2022-09-11 12:10:00,,0834.0,5.01,0.00,26.5,24.8,00.0,35.3,28.3,27.0,-001.0,0008.26,0006.09,0005.92
2022-09-11 12:11:00,,0834.0,5.00,0.00,26.5,24.9,00.0,35.3,28.3,26.4,-001.3,0008.29,0006.10,0005.92
2022-09-11 12:12:00,,0834.0,5.00,0.00,26.5,24.9,00.0,35.3,28.3,25.9,-000.6,0008.28,0006.09,0005.91
2022-09-11 12:13:00,,0834.0,5.01,0.00,26.5,24.9,00.0,35.3,28.4,25.8,-000.6,0008.30,0006.08,0005.90
2022-09-11 12:14:00,,0834.0,4.98,0.00,26.5,24.9,00.0,35.2,28.4,25.7,-000.6,0008.27,0006.07,0005.89
2022-09-11 12:15:00,,0834.0,5.01,0.00,26.5,24.9,00.0,35.3,28.4,25.7,-000.6,0008.30,0006.09,0005.90
2022-09-11 12:16:00,,0834.0,4.99,0.00,26.5,24.9,00.0,35.3,28.3,25.8,-000.2,0008.33,0006.11,0005.91
2022-09-11 12:17:00,,0834.0,5.01,0.00,26.5,24.9,00.0,35.3,28.4,25.8,0000.1,0009.01,0006.13,0005.93
2022-09-11 12:18:00,,0834.0,4.99,0.00,26.5,25.0,00.0,35.3,28.4,25.7,0000.3,0009.23,0006.16,0005.96
2022-09-11 12:19:00,,0834.0,5.00,0.00,26.5,25.0,00.0,35.3,28.4,25.7,0000.6,0009.28,0006.18,0005.98
2022-09-11 12:20:00,,0834.0,5.01,0.00,26.5,25.0,00.0,35.3,28.4,25.6,0000.5,0009.32,0006.22,0006.01
2022-09-11 12:21:00,,0834.0,4.99,0.00,26.5,25.0,00.0,35.3,28.4,25.6,0000.6,0009.47,0006.30,0006.05
2022-09-11 12:22:00,,0834.0,5.01,0.00,26.5,25.1,00.0,35.3,28.5,25.5,0000.9,0009.68,0006.33,0006.09
2022-09-11 12:23:00,,0834.0,4.99,0.00,26.6,25.1,00.0,35.3,28.5,25.5,0000.4,0009.98,0006.37,0006.12
2022-09-11 12:24:00,,0834.0,5.01,0.00,26.6,25.1,00.0,35.3,28.5,25.5,0001.1,0010.15,0006.39,0006.15
2022-09-11 12:25:00,,0834.0,4.99,0.00,26.6,25.1,00.0,35.3,28.5,25.5,0000.6,0010.13,0006.41,0006.17
2022-09-11 12:26:00,,0834.0,5.01,0.00,26.6,25.1,00.0,35.3,28.5,25.4,0000.5,0010.20,0006.43,0006.19
2022-09-11 12:27:00,,0834.0,4.98,0.00,26.6,25.1,00.0,35.3,28.5,25.4,0000.4,0010.24,0006.45,0006.21
2022-09-11 12:28:00,,0834.0,5.01,0.00,26.6,25.1,00.0,35.3,28.5,25.4,-000.2,0009.57,0006.45,0006.21
2022-09-11 12:29:00,,0834.0,4.98,0.00,26.6,25.1,00.0,35.3,28.5,25.4,-000.6,0009.42,0006.46,0006.21
2022-09-11 12:30:00,,0834.0,5.01,0.00,26.6,25.1,00.0,35.3,28.5,25.3,-001.0,0009.43,0006.46,0006.22
2022-09-11 12:31:00,,0834.0,4.99,0.00,26.6,25.1,00.0,35.3,28.5,25.3,-000.8,0009.40,0006.43,0006.21
2022-09-11 12:32:00,,0834.1,5.01,0.00,26.6,25.1,00.0,35.3,28.5,25.3,-000.9,0009.29,0006.38,0006.21
2022-09-11 12:33:00,,0834.1,5.00,0.00,26.6,25.1,00.0,35.3,28.5,25.3,-001.0,0009.11,0006.38,0006.20
2022-09-11 12:34:00,,0834.1,5.01,0.00,26.6,25.1,00.0,35.3,28.6,25.3,-000.9,0008.87,0006.37,0006.20
2022-09-11 12:35:00,,0834.0,5.00,0.00,26.6,25.1,00.0,35.3,28.5,25.3,-001.4,0008.72,0006.38,0006.19
2022-09-11 12:36:00,,0834.1,5.00,0.00,26.6,25.1,00.0,35.3,28.5,25.3,-000.9,0008.79,0006.43,0006.22
2022-09-11 12:37:00,,0834.1,5.01,0.00,26.6,25.0,00.0,35.3,28.5,25.1,-000.7,0008.96,0006.46,0006.23
2022-09-11 12:38:00,,0834.1,4.99,0.00,26.6,24.9,00.0,35.3,28.5,25.2,-000.9,0009.03,0006.46,0006.23
2022-09-11 12:39:00,,0834.1,5.01,0.00,26.6,24.9,00.0,35.3,28.4,25.3,-000.9,0009.07,0006.46,0006.24
2022-09-11 12:40:00,,0834.1,5.01,0.00,26.6,24.9,00.0,35.3,28.4,25.4,-000.5,0009.04,0006.45,0006.25
2022-09-11 12:41:00,,0834.1,4.99,0.00,26.5,24.9,00.0,35.3,28.4,25.5,-000.2,0009.02,0006.46,0006.27
2022-09-11 12:42:00,,0834.1,5.01,0.00,26.5,24.9,00.0,35.3,28.4,25.4,-000.5,0009.02,0006.48,0006.29
2022-09-11 12:43:00,,0834.1,5.01,0.00,26.5,24.9,00.0,35.3,28.4,25.4,-000.1,0009.08,0006.51,0006.30
2022-09-11 12:44:00,,0834.1,4.98,0.00,26.5,24.9,00.0,35.3,28.4,25.4,0000.4,0009.07,0006.51,0006.30
2022-09-11 12:45:00,,0834.0,5.01,0.00,26.5,24.9,00.0,35.3,28.4,25.3,0000.3,0009.09,0006.52,0006.30
2022-09-11 12:46:00,,0834.1,5.01,0.00,26.5,24.9,00.0,35.3,28.4,25.1,0000.7,0009.04,0006.50,0006.30
2022-09-11 12:47:00,,0834.1,4.99,0.00,26.5,24.9,00.0,35.3,28.4,25.3,0000.3,0009.03,0006.45,0006.27
2022-09-11 12:48:00,,0834.1,5.01,0.00,26.5,24.9,00.0,35.3,28.4,25.5,0000.0,0008.87,0006.43,0006.26
2022-09-11 12:49:00,,0834.1,5.01,0.00,26.5,24.9,00.0,35.3,28.4,25.7,0000.0,0008.75,0006.44,0006.26
2022-09-11 12:50:00,,0834.1,4.98,0.00,26.5,24.9,00.0,35.3,28.4,25.7,0000.0,0008.69,0006.41,0006.24
2022-09-11 12:51:00,,0834.1,5.01,0.00,26.5,24.8,00.0,35.3,28.4,25.7,0000.2,0008.70,0006.43,0006.24
2022-09-11 12:52:00,,0834.0,5.00,0.00,26.5,24.8,00.0,35.3,28.4,25.6,0000.4,0008.73,0006.43,0006.22
2022-09-11 12:53:00,,0834.1,4.99,0.00,26.5,24.8,00.0,35.2,28.3,25.6,0000.3,0008.71,0006.41,0006.20
2022-09-11 12:54:00,,0834.1,5.01,0.00,26.5,24.8,00.0,35.2,28.3,25.7,0000.4,0008.67,0006.39,0006.19
2022-09-11 12:55:00,,0834.1,4.99,0.00,26.5,24.8,00.0,35.2,28.3,26.6,0000.6,0008.65,0006.38,0006.18
2022-09-11 12:56:00,,0834.1,5.01,0.00,26.5,24.8,00.0,35.2,28.3,27.5,0000.5,0008.68,0006.40,0006.19
2022-09-11 12:57:00,,0834.1,5.01,0.00,26.5,24.8,00.0,35.2,28.3,26.8,0000.4,0008.76,0006.43,0006.22
2022-09-11 12:58:00,,0834.1,4.98,0.00,26.5,24.8,00.0,35.2,28.3,26.5,0000.5,0008.82,0006.45,0006.23
2022-09-11 12:59:00,,0834.1,5.01,0.00,26.4,24.8,00.0,35.2,28.3,26.7,0000.5,0008.82,0006.45,0006.24
